OBJECT G, 60209

Orbit data source: Space-Track

You're viewing an Uncataloged Satellite

Recently launched and/or uncataloged satellites may have evolving metadata. Metadata may include but not limited to: Owner, Maufacturer, Bus, Motor, and Mission.

OBJECT G, 60209 is an American satellite in SSO that was launched on Thu, 04 Jul 2024 UTC via an FIREFLY ALPHA launch vehicle from the Air Force Western Test Range (AFWTR). Unknown objects in Earth's orbit typically refer to objects detected orbiting the Earth but have not yet been identified or cataloged. These objects could be anything from previously untracked satellites, spent rocket stages, debris from satellite collisions, or even natural meteoroids temporarily captured by Earth's gravity.

Loading next visibility...
Identifier
60209, 2024-125G
Orbit
SSO
Country
Flag of USUS
Related business
Flag of USUniversity of Maine (US)
Manufacturer
UME
Mission
Operational Amateur Science
Bus & Motor
CUBESAT 3U, Unknown motor
Mass
3 kg wet, 3 kg dry
Launch date (UTC)
2024-07-04 (1 year ago)
Launch vehicle
FIREFLY ALPHA
Launch site
Air Force Western Test Range (AFWTR)
Object type
Unknown
Shape & HBR
Box, 0.1 m
Radar Cross Section
0.035 m², Small (<0.1 m²)

Expand to show TLE details & history
Last TLE update: 22 hours ago

TLE from 22 hours ago
0 OBJECT G
1 60209U 24125G   25340.83363316  .00048625  00000-0  99983-3 0  9994
2 60209  97.2522 191.2032 0013728 200.8099 159.2593 15.45723981 79693
Epoch: 2025-12-06T20:00Z
TLE epoch observation values (Epoch: 2025-12-06T20:00:25.905Z)
Latitude
-0.00003°
Longitude
175.23957°
Altitude
441.124 km
Speed
7.642 km/s
True Right ascension
12h 44m 48s
True Declination
0° 00' 00"
Sunlit
Object was in daylight at epoch
Visualization orbit readout
Latitude
Unknown
Longitude
Unknown
Altitude
Unknown
Speed
Unknown
Apparent Right ascension
Unknown
Apparent Declination
Unknown
Sunlit
N/A
Visualization observer readout
Local Sidereal Time
15:38:50
Azimuth
Unknown
Elevation
Unknown
Doppler factor
Unknown
Orbital elements
Apogee altitude
435.518 km
Perigee altitude
416.836 km
Semi-major axis
6,804.314 km
Eccentricity
0.00137
Inclination
97.2522°
RAAN
191.2032°
Arg. of periapsis
200.8099°
True anomaly
159.31492°
Mean anomaly
159.2593°
Eccentric anomaly
159.28712°
Mean motion
3.86693 °/min
Orbital period
93.1 mins
BSTAR
0.00099983
Loading maneuver chart data...
Computing Atmospheric mass density...
Loading historical data...
Loading historical data...
Loading historical data...
Loading historical data...
Loading historical data...
Loading historical data...
Loading historical data...

Documentation

Showing up to 5 results
|